User: anonymous   Login
Location: State Camp
(41.2367°N, 77.7828°W)
Time: 16:31:18
(UTC-05:00)
Language:

Cosmos 1674 Rocket - Orbit

View from above orbital plane
View from above orbital plane
View from above satellite
View from above satellite

Ground track
Ground track

The orbit data is extracted from the following two-line orbital elements,

1 15945U 85069B   14328.43301728  .00000581  00000-0  67515-4 0  8258
2 15945 082.5276 289.1732 0021481 127.9181 022.5581 14.83489783582275
Epoch (UTC): 24 November 2014 10:23:32
Eccentricity: 0.0021481
inclination: 82.5276°
perigee height: 603 km
apogee height: 633 km
right ascension of ascending node: 289.1732°
argument of perigee: 127.9181°
revolutions per day: 14.83489783
mean anomaly at epoch: 22.5581°
orbit number at epoch: 58227

The dashed part of the orbit path shows where the satellite is in the earth's shadow,  

DLR